Location: Unspecified
(0.0000°N, 0.0000°E)
Time: 11:55:12
(UTC+00:00)

CAS-4A - Visible Passes

Search period start: 22 May 2019 00:00
Search period end: 01 June 2019 00:00
Orbit: 530 x 544 km, 43.0° (Epoch: 22 May)

Date Brightness Start Highest point End Pass type
(mag) Time Alt. Az. Time Alt. Az. Time Alt. Az.
23 May ? 20:12:45 10° NNW 20:13:31 15° NNW 20:13:31 15° NNW visible
24 May ? 20:02:27 10° NW 20:04:14 25° NNW 20:04:14 25° NNW visible
25 May ? 19:52:17 10° NW 19:55:01 41° NW 19:55:01 41° NW visible
26 May ? 19:42:14 10° WNW 19:45:50 51° WSW 19:45:50 51° WSW visible
27 May ? 19:32:21 10° WNW 19:36:05 35° SW 19:36:41 33° SSW visible
28 May ? 19:22:38 10° W 19:25:58 24° SW 19:27:34 19° S visible
29 May ? 19:13:11 10° W 19:15:52 17° SW 19:18:25 10° S visible
30 May ? 05:26:56 10° SSW 05:30:51 42° SE 05:34:45 10° ENE visible
30 May ? 19:04:19 10° WSW 19:05:46 12° SW 19:07:14 10° SSW visible
31 May ? 05:16:37 10° SW 05:20:43 64° SE 05:24:47 10° NE visible
